User: anonymous   Login
Location: Unspecified
(0.0000°N, 0.0000°E)
Time: 04:31:19
(UTC+00:00)
Language:

CUTE 1.7 + AOD 2 - Orbit

View from above orbital plane
View from above orbital plane
View from above satellite
View from above satellite

Ground track
Ground track

The orbit data is extracted from the following two-line orbital elements,

1 32785U 08021C   18350.19559852  .00000195  00000-0  26707-4 0  9998
2 32785  97.5463 353.6768 0013841 149.3162 210.8868 14.88221369576243
Epoch (UTC): 16 December 2018 04:41:39
Eccentricity: 0.0013841
inclination: 97.5463°
perigee height: 594 km
apogee height: 613 km
right ascension of ascending node: 353.6768°
argument of perigee: 149.3162°
revolutions per day: 14.88221369
mean anomaly at epoch: 210.8868°
orbit number at epoch: 57624

The dashed part of the orbit path shows where the satellite is in the earth's shadow,  

DLR